Simultaneous Nadir Overpasses (SNOs) Predictions

Prediction of SNOs between AURA and LANDSAT-8 Satellite Orbit:

Table of predicted SNOs for the next 14.0 days since TLE Epoch: 11/25/2025
Index Date (AURA) Time (AURA) Lat,Lon (AURA) SZA (AURA ) Date (LANDSAT-8) Time (LANDSAT-8) Lat,Lon (LANDSAT-8) SZA (LANDSAT-8 ) Distance(km) Time Diff (sec)
1 12/09/2025 00:04:27 -73.86, 3.94 83.30 12/09/2025 00:03:19 -73.85, 2.02 83.37 59.29 68
2 12/09/2025 00:53:50 74.04, 171.20 96.87 12/09/2025 00:52:40 74.07, 170.15 96.86 32.10 70
3 12/09/2025 01:43:13 -74.29, -21.72 82.89 12/09/2025 01:42:04 -74.27, -21.76 82.93 3.34 69
4 12/09/2025 02:32:32 74.27, 146.01 97.09 12/09/2025 02:31:29 74.28, 145.91 97.09 3.12 63



Historial Predications of SNOs between AURA and LANDSAT-8
